Notices

What's New in latest Release from April 7th, 2021:

- Updated Glossary, including Speed of Maximum Gust, and Total Hourly Precipitation

- Updated national and regional climate services offices contacts and prices information

- Addition of station inventory lists for 1981-2010, 1971-2000, and 1961-1990 Normals.

If you haven't already, please take our survey and provide feedback about our website: https://eccc.sondage-survey.ca/f/LanguageSelection.aspx?s=442ca660-fcf1-47c0-95a9-59707d6fd709

Hourly Data Report for June 11, 2006

TORONTO CITY
ONTARIO

43°40'00.000" N
79°24'00.000" W
112.50 m
6158355
71508
XTO

Download Data

Hourly Data (June 2006)
Hourly Data Report for June 11, 2006
TIME
LST
Temp Definition
°C
Dew Point Definition
°C
Rel Hum Definition
%
Precip. Amount Definition
mm

Wind Dir Definition
10's deg

Wind Spd Definition
km/h
Visibility Definition
km
Stn Press Definition
kPa
Hmdx Definition


Wind Chill Definition


Weather Definition


00:00 10.2 4.4 67   LegendMM LegendMM   99.76     LegendNANA
01:00 9.7 4.5 70   LegendMM LegendMM   99.73     LegendNANA
02:00 9.3 5.0 74   LegendMM LegendMM   99.73     LegendNANA
03:00 9.2 5.5 78   LegendMM LegendMM   99.74     LegendNANA
04:00 9.5 6.1 79   LegendMM LegendMM   99.79     LegendNANA
05:00 9.2 5.7 79   LegendMM LegendMM   99.76     LegendNANA
06:00 9.4 5.6 77   LegendMM LegendMM   99.76     LegendNANA
07:00 10.3 5.4 72   LegendMM LegendMM   99.78     LegendNANA
08:00 11.9 5.8 66   LegendMM LegendMM   99.81     LegendNANA
09:00 13.1 5.7 61   LegendMM LegendMM   99.80     LegendNANA
10:00 14.1 6.5 60   LegendMM LegendMM   99.77     LegendNANA
11:00 15.5 7.3 58   LegendMM LegendMM   99.84     LegendNANA
12:00 16.4 8.3 59   LegendMM LegendMM   99.87     LegendNANA
13:00 17.0 8.4 57   LegendMM LegendMM   99.85     LegendNANA
14:00 18.2 8.5 53   LegendMM LegendMM   99.84     LegendNANA
15:00 18.5 9.2 55   LegendMM LegendMM   99.83     LegendNANA
16:00 17.7 8.2 54   LegendMM LegendMM   99.84     LegendNANA
17:00 16.8 8.3 57   LegendMM LegendMM   99.87     LegendNANA
18:00 15.7 8.5 62   LegendMM LegendMM   99.89     LegendNANA
19:00 14.7 8.2 65   LegendMM LegendMM   99.94     LegendNANA
20:00 13.8 7.9 68   LegendMM LegendMM   99.96     LegendNANA
21:00 13.5 7.7 68   LegendMM LegendMM   99.98     LegendNANA
22:00 13.0 8.5 74   LegendMM LegendMM   100.03     LegendNANA
23:00 12.8 9.1 78   LegendMM LegendMM   100.06     LegendNANA

Notes on Data Quality.

Legend

  • E = Estimated
  • M = Missing
  • NA = Not Available*
  • [empty] = Indicates an unobserved value
Date modified: